Location: Le Vaud
(46.4779°N, 6.2346°E)
Time: 08:55:40
(UTC+00:00)

Okean O Rocket - Pass Details

Date: 18 February 2020
Orbit: 622 x 645 km, 98.2° (Epoch: 10 April)

Event Time Altitude Azimuth Distance (km) Brightness Sun altitude
Rises 05:17:38 0° 15° (NNE) 2,937 5.2 -13.9°
Reaches altitude 10° 05:19:52 10° 18° (NNE) 2,021 4.4 -13.5°
Maximum altitude 05:24:15 70° 102° (ESE) 671 1.9 -12.8°
Drops below altitude 10° 05:28:34 10° 187° (S) 1,993 4.1 -12.0°
Sets 05:30:45 0° 189° (S) 2,893 5.0 -11.7°
